This is the latest recevied weather packets stored in our database for station/object LKCS. If no packets are shown the sender has not sent any weather packets the latest 10 day(s).
| Time | Temp. | Humidity | Pressure | Rain* | Wind** | Luminosity | Snow |
|---|---|---|---|---|---|---|---|
| 1788143550 | 17.78° C | 82% | 1015 hPa | - | - | - | - |
| 1788141764 | 17.22° C | 88% | 1015 hPa | - | - | - | - |
| 1788139985 | 17.22° C | 88% | 1016 hPa | - | - | - | - |
| 1788138185 | 17.22° C | 88% | 1016 hPa | - | - | - | - |
| 1788136385 | 17.22° C | 88% | 1016 hPa | - | - | - | - |
| 1788134586 | 17.22° C | 82% | 1016 hPa | - | - | - | - |
| 1788132751 | 17.78° C | 77% | 1016 hPa | - | - | - | - |
| 1788130987 | 17.78° C | 77% | 1016 hPa | - | - | - | - |
| 1788129186 | 17.78° C | 77% | 1016 hPa | - | - | - | - |
| 1788127386 | 17.78° C | 82% | 1016 hPa | - | - | - | - |
| 1788125551 | 17.78° C | 77% | 1016 hPa | - | - | - | - |
| 1788123786 | 18.89° C | 72% | 1016 hPa | - | - | - | - |
| 1788121951 | 18.89° C | 72% | 1016 hPa | - | - | - | - |
| 1788120167 | 18.89° C | 72% | 1016 hPa | - | - | - | - |
| 1788118385 | 20° C | 68% | 1016 hPa | - | - | - | - |
| 1788116594 | 21.11° C | 64% | 1016 hPa | - | - | - | - |
| 1788114758 | 21.11° C | 64% | 1016 hPa | - | - | - | - |
| 1788112960 | 22.78° C | 56% | 1016 hPa | - | - | - | - |
| 1788111185 | 22.78° C | 56% | 1015 hPa | - | - | - | - |
| 1788109395 | 25° C | 50% | 1015 hPa | - | - | - | - |
| 1788107558 | 26.11° C | 47% | 1015 hPa | - | - | - | - |
| 1788105786 | 26.11° C | 44% | 1015 hPa | - | - | - | - |
| 1788103985 | 27.22° C | 42% | 1015 hPa | - | - | - | - |
| 1788102186 | 27.22° C | 42% | 1016 hPa | - | - | - | - |
| 1788100385 | 27.22° C | 39% | 1016 hPa | - | - | - | - |
* Rain since midnight (hover to see other rain measurements)
** Current wind speed in m/s (hover to see current wind gust speed)